Wind_Speed
13 16 16 16 16 16 16 16 16 17 17 17 17 18 18 18 18 17 16 15 15 14 14 14 14 14 14 15 15 15 15 16 16 16 17 17 17 17 17 17 17 17 17
14 14 15 15 15 15 14 14 14 14 15 15 16 17 18 18 18 17 17 16 15 15 15 15 15 15 16 16 17 17 17 18 18 19 19 20 20 20 20 20 20 20 20
13 11 12 11 11 11 11 11 11 11 11 12 13 15 16 17 17 17 17 16 16 15 16 16 15 15 16 17 17 18 19 19 20 21 21 21 22 22 22 22 22 22 22
9 9 8 8 8 8 8 9 9 9 9 10 11 12 14 15 16 16 16 16 15 16 16 16 16 16 16 17 17 18 19 20 21 21 22 22 22 23 23 24 24 24 24
7 7 7 7 7 8 8 9 9 9 9 9 10 10 11 12 13 14 14 14 14 15 15 15 15 16 16 17 18 19 19 20 21 21 22 21 21 22 23 23 24 24 24
6 7 8 8 8 9 9 9 9 9 9 9 9 9 10 10 11 11 11 12 12 13 13 14 15 15 16 17 17 18 19 20 20 20 21 19 19 21 21 21 21 22 22
6 7 8 9 9 10 10 10 9 9 9 9 9 9 9 10 10 10 10 11 11 12 12 13 14 15 15 16 16 17 18 19 19 19 19 19 19 20 20 20 20 21 21
7 7 8 9 10 10 10 10 9 9 9 10 10 10 11 11 11 11 11 11 12 12 13 13 14 15 15 16 17 17 18 18 19 19 19 18 20 20 21 22 22 22 22
7 7 8 9 10 11 11 10 10 10 10 11 11 11 12 12 12 12 13 13 13 13 14 15 15 16 17 17 18 18 19 20 21 21 19 19 21 22 22 23 24 24 25
8 7 8 8 9 10 10 10 10 11 11 12 12 12 12 13 13 13 14 14 14 14 15 15 16 17 17 18 19 20 20 21 22 21 19 20 22 23 24 24 25 25 26
10 9 8 9 10 10 10 11 11 12 12 12 12 12 13 13 14 14 14 14 15 15 16 16 17 17 18 18 19 20 20 22 22 21 20 21 23 24 25 26 26 27 28
12 11 10 11 11 11 11 11 12 12 12 12 13 13 14 14 14 14 14 15 15 16 16 17 17 17 17 17 18 19 20 22 23 22 21 23 25 26 27 28 29 30 31
14 14 13 13 12 12 12 13 13 13 13 13 14 14 14 14 14 14 14 15 16 16 16 17 16 16 17 17 18 20 21 23 25 24 23 25 27 29 31 32 33 34 36
14 15 15 15 15 15 15 15 15 14 14 14 15 15 15 15 15 15 15 15 16 16 17 17 17 17 19 20 20 21 23 24 26 28 28 28 30 32 34 35 37 38 40
16 16 16 16 17 17 17 17 17 16 16 15 15 16 16 16 17 17 17 18 18 18 18 19 20 20 22 22 23 24 25 27 29 31 31 32 33 35 37 39 41 42 44
18 19 19 18 18 19 19 19 19 19 18 18 18 18 18 18 19 19 19 20 21 22 22 23 24 24 26 26 27 29 29 30 32 34 36 37 37 38 40 42 44 46 49
20 21 22 21 20 21 21 22 22 22 22 21 21 21 22 21 22 23 23 23 24 25 26 28 28 29 30 31 32 34 35 36 38 40 41 43 44 45 45 47 48 51 53
22 23 24 25 24 24 25 25 25 25 25 25 25 25 25 26 26 26 26 27 28 29 29 31 33 34 36 36 37 39 41 42 44 45 47 48 50 51 52 53 54 55 57
25 24 26 28 27 28 29 29 29 29 29 29 29 29 29 30 30 31 30 31 32 32 33 35 36 37 39 40 42 44 45 47 49 50 52 53 55 56 58 59 60 61 62
27 27 28 30 30 31 32 33 33 34 34 34 35 35 33 33 35 35 34 34 35 36 37 38 39 41 43 45 46 48 49 51 53 55 57 58 60 61 63 64 65 66 66
31 31 31 32 33 34 36 37 37 38 39 39 39 40 38 37 37 37 37 36 36 38 40 41 43 45 47 49 50 52 53 55 57 59 61 63 64 65 66 67 68 68 67
35 33 33 35 35 37 39 40 41 42 43 43 43 42 41 39 38 38 39 39 39 42 43 45 47 48 50 53 54 56 57 59 61 63 64 66 67 68 68 68 69 68 67
38 35 35 36 37 39 41 43 44 44 44 45 45 45 43 40 38 40 39 40 42 44 46 47 49 50 53 55 57 59 59 59 60 63 66 68 68 68 69 70 70 69 67
38 37 36 37 38 40 42 44 46 47 47 46 47 46 44 42 42 42 41 43 45 46 46 48 50 52 54 56 57 58 60 61 62 62 64 66 67 68 69 69 68 66 63
38 37 37 37 39 41 43 45 47 48 48 47 47 46 45 43 42 43 43 44 46 47 49 51 53 55 56 56 58 59 61 62 62 62 63 65 67 68 69 68 66 63 60
36 36 36 38 40 41 43 44 46 47 47 47 47 46 46 45 44 44 45 46 47 49 51 54 56 56 56 57 59 59 61 62 64 64 65 66 68 68 68 66 63 62 60
Wind_Direction
280 274 270 268 267 266 265 261 257 254 251 250 252 253 254 254 253 252 251 250 248 246 245 246 247 249 250 252 254 255 255 255 255 256 257 259 261 264 266 268 270 271 272
285 279 273 271 269 268 268 266 262 258 255 253 253 252 251 251 251 252 252 250 249 248 247 247 248 249 251 253 255 256 257 258 258 259 260 262 264 266 267 269 271 272 273
290 288 281 276 272 272 275 276 273 268 263 259 256 253 250 249 250 251 251 250 250 251 252 251 251 252 254 256 257 258 259 259 260 261 263 264 265 266 267 269 270 272 272
293 293 289 286 282 283 285 285 286 284 277 271 264 258 253 249 249 249 250 251 252 253 254 254 255 257 258 259 259 260 261 262 262 264 265 265 267 268 268 269 270 271 272
304 303 300 298 294 293 292 290 286 284 283 279 271 263 255 251 248 249 251 253 255 256 256 256 257 259 261 262 263 264 264 265 266 268 268 267 269 270 271 272 272 272 274
321 316 312 309 302 298 296 290 284 280 278 274 269 262 256 252 249 249 252 253 255 256 257 258 260 262 264 266 268 269 270 271 272 272 272 275 277 276 275 275 276 276 277
333 327 325 323 318 312 304 294 286 280 274 269 265 262 260 258 255 254 255 258 259 260 261 262 264 266 268 271 273 275 277 279 279 278 278 280 280 280 280 281 281 281 281
338 335 335 332 327 320 312 301 291 282 274 269 267 267 266 265 264 262 263 265 266 266 266 267 268 270 271 273 275 277 278 280 280 280 281 285 285 284 284 285 285 285 284
341 339 340 336 330 323 316 307 298 290 282 277 273 272 272 271 271 270 270 271 272 270 270 270 270 271 272 273 274 276 278 279 279 280 284 286 285 287 287 287 286 285 285
336 338 340 337 329 322 316 309 302 295 289 283 278 276 276 276 275 274 275 274 274 273 272 273 273 274 274 273 274 275 276 278 279 281 284 284 285 286 287 287 286 285 285
332 335 335 331 332 326 318 311 304 298 293 287 283 280 278 278 278 278 278 277 276 276 276 275 275 274 274 274 274 275 276 278 279 281 284 284 284 285 286 286 285 285 284
334 331 331 326 325 322 319 315 309 304 298 293 289 286 285 284 283 282 281 281 281 281 279 277 277 276 276 276 277 276 277 279 281 284 287 286 286 286 286 286 286 285 284
333 329 329 326 324 321 318 315 312 307 302 297 294 292 291 292 292 291 290 289 287 286 284 282 280 279 278 277 276 277 278 280 283 286 287 285 286 287 287 286 286 286 285
328 327 326 324 322 319 315 313 312 310 305 301 299 297 297 298 299 299 298 296 295 292 289 287 285 283 282 280 279 279 279 280 283 287 288 287 287 287 287 287 287 287 286
323 322 323 323 321 318 314 311 309 308 306 305 302 301 301 302 303 303 303 302 300 296 293 289 287 284 282 281 281 281 282 283 284 287 288 288 289 289 289 289 288 287 287
317 316 317 318 318 316 313 309 306 305 305 304 302 301 300 300 299 299 299 299 299 296 293 289 288 286 283 282 281 282 281 283 286 288 289 289 289 290 289 289 289 289 288
309 311 311 312 312 311 309 307 303 302 302 302 299 298 298 296 295 294 294 295 294 293 292 291 288 287 285 283 283 283 283 284 286 288 289 289 289 289 289 289 289 288 286
303 305 306 305 306 305 305 303 302 300 299 298 297 295 294 292 290 290 291 291 291 291 291 290 290 289 288 287 286 285 285 285 286 287 287 288 288 289 289 289 287 286 285
300 299 299 299 301 299 299 299 300 299 298 296 294 294 291 290 288 287 288 288 289 290 291 291 291 290 290 289 289 288 288 287 287 287 287 286 287 288 288 288 287 286 285
295 295 294 295 295 294 294 295 295 295 295 295 292 291 290 290 288 286 286 287 289 291 291 292 293 292 291 291 290 290 289 289 288 288 287 287 287 287 288 288 287 286 284
292 291 289 289 289 289 289 290 291 291 292 293 293 291 289 289 290 288 285 285 288 290 291 292 292 291 291 290 290 289 288 288 287 286 286 285 286 287 287 287 287 286 285
287 287 287 286 285 284 285 286 287 288 289 290 291 292 289 290 290 290 286 285 287 289 291 292 291 291 291 290 290 288 288 287 287 287 286 286 286 286 287 288 287 286 286
284 285 283 282 281 281 282 283 284 284 286 288 289 291 291 288 290 291 290 288 289 291 293 292 291 290 290 290 290 289 288 287 287 287 288 288 288 289 289 290 289 289 288
282 281 280 279 279 279 280 281 283 283 285 288 289 289 289 290 290 291 291 290 292 294 296 295 294 293 292 291 291 290 289 288 287 287 288 290 291 291 290 290 290 289 288
277 278 277 277 278 279 279 279 281 284 286 288 289 288 289 291 292 292 292 292 293 294 295 295 296 295 294 292 292 292 291 290 289 289 289 290 291 291 291 291 290 289 287
273 274 275 276 278 279 280 281 283 285 287 288 288 288 289 290 291 291 292 293 294 294 295 295 296 295 294 294 293 292 292 292 292 292 291 291 291 291 291 291 290 288 286
Height
5893 5891 5890 5890 5889 5889 5889 5889 5890 5890 5890 5891 5891 5892 5892 5893 5893 5894 5894 5894 5894 5895 5895 5895 5895 5896 5896 5896 5896 5896 5897 5897 5898 5898 5898 5899 5899 5900 5900 5900 5901 5902 5902
5890 5889 5888 5888 5887 5887 5886 5886 5887 5887 5887 5887 5888 5889 5889 5890 5891 5891 5892 5892 5892 5892 5893 5893 5893 5893 5893 5893 5894 5894 5894 5895 5895 5895 5896 5896 5896 5897 5897 5898 5898 5898 5899
5887 5887 5886 5886 5885 5885 5884 5884 5884 5884 5884 5885 5885 5886 5887 5887 5888 5889 5889 5889 5889 5890 5890 5890 5891 5891 5891 5891 5891 5892 5892 5892 5892 5892 5893 5893 5893 5894 5894 5895 5895 5895 5895
5885 5885 5885 5884 5884 5883 5883 5882 5882 5882 5882 5882 5883 5883 5884 5885 5885 5886 5886 5886 5887 5887 5887 5888 5888 5888 5888 5889 5889 5889 5889 5889 5889 5889 5890 5890 5890 5890 5890 5891 5891 5891 5892
5884 5884 5883 5883 5883 5882 5881 5881 5880 5880 5880 5880 5881 5881 5881 5882 5883 5883 5884 5884 5884 5884 5884 5885 5885 5885 5885 5885 5885 5885 5885 5885 5885 5886 5886 5886 5886 5886 5887 5887 5887 5888 5888
5883 5883 5882 5882 5881 5881 5880 5880 5879 5879 5879 5878 5879 5879 5879 5880 5880 5881 5881 5881 5881 5881 5882 5882 5882 5882 5882 5882 5882 5882 5882 5881 5882 5882 5881 5882 5882 5881 5882 5883 5883 5883 5883
5882 5881 5881 5880 5880 5879 5879 5878 5878 5878 5877 5877 5877 5877 5877 5878 5878 5878 5878 5878 5878 5878 5879 5879 5878 5878 5878 5878 5878 5878 5878 5878 5878 5878 5878 5879 5878 5877 5878 5878 5879 5879 5879
5881 5880 5879 5879 5878 5878 5877 5877 5876 5876 5876 5876 5875 5875 5875 5875 5875 5876 5876 5876 5875 5876 5876 5876 5875 5875 5875 5875 5875 5874 5874 5874 5874 5874 5874 5875 5874 5874 5874 5874 5874 5875 5875
5880 5879 5878 5878 5877 5877 5876 5876 5875 5875 5874 5874 5874 5874 5873 5873 5873 5873 5873 5873 5873 5873 5873 5873 5872 5872 5872 5872 5871 5871 5871 5870 5869 5869 5871 5871 5870 5869 5869 5869 5869 5869 5869
5880 5879 5878 5877 5876 5876 5875 5874 5874 5873 5873 5872 5872 5871 5871 5871 5871 5870 5870 5870 5870 5870 5869 5869 5869 5869 5868 5868 5868 5867 5867 5866 5865 5865 5867 5866 5865 5864 5864 5864 5864 5864 5863
5878 5878 5877 5876 5875 5875 5874 5873 5872 5871 5871 5870 5870 5869 5869 5868 5868 5868 5867 5867 5867 5866 5866 5865 5865 5865 5864 5864 5863 5863 5862 5861 5860 5861 5861 5861 5860 5859 5859 5858 5858 5858 5857
5876 5876 5875 5875 5874 5873 5872 5871 5870 5870 5869 5868 5867 5867 5866 5865 5865 5865 5864 5863 5863 5862 5861 5861 5861 5860 5860 5859 5859 5858 5857 5856 5855 5855 5856 5855 5854 5853 5853 5852 5851 5851 5850
5875 5874 5873 5873 5872 5872 5871 5870 5869 5868 5867 5866 5865 5864 5863 5862 5862 5861 5860 5859 5858 5858 5857 5856 5856 5856 5855 5855 5854 5853 5853 5851 5849 5849 5850 5849 5848 5847 5845 5845 5844 5843 5842
5873 5872 5872 5871 5870 5870 5869 5868 5867 5866 5865 5864 5862 5861 5860 5859 5858 5857 5857 5856 5855 5854 5853 5852 5852 5851 5850 5849 5849 5848 5847 5845 5844 5842 5842 5842 5841 5839 5838 5836 5835 5834 5833
5871 5870 5870 5869 5868 5867 5866 5865 5865 5864 5863 5861 5860 5859 5857 5856 5855 5854 5853 5851 5851 5850 5849 5848 5847 5846 5845 5844 5843 5842 5841 5839 5837 5835 5834 5834 5833 5831 5829 5827 5826 5824 5823
5869 5868 5867 5867 5867 5866 5864 5863 5862 5861 5860 5859 5858 5856 5855 5853 5852 5851 5850 5848 5847 5846 5845 5843 5842 5841 5840 5839 5837 5836 5834 5832 5830 5828 5826 5825 5823 5822 5820 5818 5816 5813 5811
5865 5865 5864 5864 5864 5863 5862 5861 5859 5858 5857 5856 5855 5854 5852 5850 5849 5847 5846 5845 5843 5842 5840 5838 5837 5836 5834 5833 5831 5829 5827 5825 5823 5820 5818 5815 5813 5811 5810 5808 5805 5802 5799
5862 5862 5861 5861 5861 5860 5859 5857 5856 5855 5854 5852 5851 5850 5848 5846 5845 5843 5842 5840 5837 5836 5835 5833 5831 5829 5827 5825 5823 5821 5819 5817 5814 5811 5808 5805 5802 5799 5797 5795 5792 5789 5786
5859 5858 5858 5856 5857 5856 5854 5853 5852 5851 5849 5848 5847 5845 5843 5841 5839 5837 5836 5834 5831 5830 5828 5825 5823 5821 5819 5816 5814 5811 5809 5806 5803 5800 5796 5793 5790 5787 5783 5780 5778 5775 5772
5854 5854 5854 5852 5852 5851 5850 5848 5847 5845 5844 5843 5841 5839 5838 5836 5833 5830 5829 5827 5824 5822 5820 5818 5815 5812 5809 5806 5804 5801 5798 5795 5791 5788 5784 5780 5776 5773 5769 5765 5762 5758 5755
5848 5849 5849 5847 5847 5845 5844 5843 5841 5839 5838 5837 5835 5832 5830 5828 5826 5823 5821 5820 5817 5814 5811 5809 5806 5802 5799 5796 5793 5790 5787 5783 5779 5775 5771 5766 5762 5758 5754 5749 5745 5741 5738
5844 5843 5841 5841 5840 5839 5837 5836 5834 5833 5831 5829 5827 5825 5823 5820 5818 5815 5813 5811 5808 5805 5802 5799 5795 5792 5788 5783 5780 5776 5774 5771 5765 5760 5755 5751 5747 5743 5738 5733 5728 5724 5720
5837 5836 5835 5834 5833 5831 5830 5828 5826 5824 5823 5822 5819 5817 5815 5812 5810 5807 5804 5802 5798 5795 5792 5788 5784 5780 5776 5771 5766 5762 5758 5754 5751 5746 5739 5734 5730 5726 5721 5715 5710 5706 5702
5829 5829 5828 5827 5825 5824 5822 5820 5818 5816 5814 5813 5810 5808 5806 5803 5801 5798 5795 5792 5788 5784 5781 5776 5772 5767 5763 5758 5752 5747 5742 5738 5735 5732 5726 5719 5714 5709 5704 5699 5693 5688 5685
5822 5821 5820 5818 5817 5815 5814 5812 5810 5807 5805 5803 5801 5798 5796 5794 5791 5788 5785 5782 5777 5773 5769 5764 5759 5754 5749 5743 5738 5732 5727 5722 5717 5715 5711 5705 5699 5693 5687 5682 5676 5672 5668
5813 5812 5811 5810 5808 5807 5805 5804 5801 5798 5796 5793 5791 5788 5786 5784 5781 5778 5775 5771 5766 5762 5757 5752 5747 5741 5735 5730 5724 5718 5712 5707 5702 5697 5693 5688 5683 5677 5671 5665 5659 5655 5651